Regional Weather Roundup
Issued by NWS Bismarck, ND

Home | Current Version | Previous Version | Text Only | Print | Product List | Glossary On
Versions: 1 2 3 4 5 6 7 8 9 10 11 12 13 14 15 16 17 18 19 20 21 22 23 24 25 26 27 28 29 30 31 32 33 34 35 36 37 38 39 40 41 42 43 44 45 46 47 48 49 50
000
ASUS43 KBIS 290559
RWRBIS

NWR BROADCAST TEXT
NATIONAL WEATHER SERVICE BISMARCK ND
1200 AM CST SAT NOV 29 2014

NOTE: "FAIR" INDICATES FEW OR NO CLOUDS BELOW 12,000 FEET WITH NO
SIGNIFICANT WEATHER AND/OR OBSTRUCTIONS TO VISIBILITY.


CITY           SKY/WX    TMP DP  RH WIND       PRES   REMARKS
WILLISTON      CLOUDY    21  17  84 N8        29.46R WCI  11
MINOT          CLOUDY     9   5  84 CALM      29.43S
MINOT AFB      NOT AVBL
BISMARCK       CLOUDY    20  17  88 SE6       29.42F WCI  12
DICKINSON      NOT AVBL
GARRISON         N/A     16  12  84 NE3       29.39S
HETTINGER ARPT CLOUDY    42  30  62 SW8       29.39F
JAMESTOWN      NOT AVBL
CARRINGTON     FAIR      14  14 100 S16       29.45F WCI  -2
CROSBY         FAIR      14  14 100 NW7       29.47R WCI   4
$$

CITY           SKY/WX    TMP DP  RH WIND       PRES   REMARKS
GRAND FORKS    CLOUDY    18  13  80 S10       29.56F WCI   6
GRAND FORKS AF NOT AVBL
DEVILS LAKE    CLOUDY    14   5  67 S12       29.45F WCI   0
FARGO          CLOUDY    21  16  81 S16       29.56F WCI   7
GRAFTON        CLOUDY    16  12  86 SE10      29.56F WCI   3
$$

CITY           SKY/WX    TMP DP  RH WIND       PRES   REMARKS
ABERDEEN       CLOUDY    21  17  84 CALM      29.50F
MOBRIDGE       PTCLDY    27  22  81 S13       29.41F WCI  16
BUFFALO          N/A     44  27  51 SW13      29.34F
RAPID CITY     CLEAR     50  20  30 SW9       29.47F
GLASGOW        CLOUDY    10   3  73 NW22      29.55R WCI -10
SIDNEY         CLOUDY    25  19  80 CALM      29.47S
WOLF POINT     CLOUDY    22  16  78 NW12      29.53R WCI  10
GLENDIVE       CLOUDY    27  23  86 N15       29.44R WCI  15
MILES CITY     MOCLDY    31  28  89 N15       29.42R
BAKER          CLOUDY    44  30  57 NW13      29.38R
$$

CITY           SKY/WX    TMP DP  RH WIND       PRES   REMARKS
BILLINGS       PTCLDY    50  17  27 VRB5      29.36S
GREAT FALLS    CLOUDY     0  -6  76 NW14      29.61R WCI -19
$$




USA.gov is the U.S. government's official web portal to all federal, state and local government web resources and services.